Location: Limerick
(52.6800°N, 8.6400°W)
Time: 21:24:10
(UTC+01:00)

Amateur Radio Satellites - All Passes

Search period start: 23 September 2014 20:54
Search period end: 24 September 2014 20:54
Location: Limerick, 52.6800°N, 8.6400°W

Satellite Date Start Highest point End Downlink Frequencies (MHz)
Time Altitude Azimuth
KITSAT 1 23 Sep 21:04:24 21:12:30 75° 315° (NW) 21:20:38 435.175 FM
SO-67 23 Sep 21:10:01 21:11:08 11° 273° (W) 21:12:15 435.3500 MHz FM
Oscar 11 23 Sep 21:10:05 21:13:35 24° 61° (ENE) 21:17:05 145.825 FM, Beacon 2401.500 USB
FUNcube-1 23 Sep 21:12:50 21:15:14 14° 53° (NE) 21:17:40 145.950 - 145.970 MHz USB
STRAND 1 23 Sep 21:19:31 21:24:33 56° 292° (WNW) 21:29:34 ?
HO-68 23 Sep 21:22:07 21:29:16 87° 70° (ENE) 21:36:29 435.675 MHz FM
UKube-1 23 Sep 21:30:19 21:34:27 46° 67° (ENE) 21:38:37 145.840 MHz, 145.915 MHz
Sapphire 23 Sep 21:45:47 21:50:46 38° 244° (WSW) 21:55:44 437.095 MHz 1200 baud AX-25 AFSK
ZACube-1 23 Sep 21:54:15 21:58:08 29° 62° (ENE) 22:02:05 437.345 MHz
PCSat 23 Sep 22:12:50 22:17:04 24° 250° (WSW) 22:21:18 145.825 MHz
SO-50 23 Sep 22:16:57 22:20:59 33° 120° (ESE) 22:25:08 436.795 FM
Saudisat 1A 23 Sep 22:32:00 22:35:19 20° 14° (NNE) 22:38:37 436.775 MHz
Oscar 11 23 Sep 22:45:14 22:49:30 52° 260° (W) 22:53:48 145.825 FM, Beacon 2401.500 USB
FUNcube-1 23 Sep 22:46:23 22:50:53 77° 73° (ENE) 22:55:30 145.950 - 145.970 MHz USB
STRAND 1 23 Sep 23:00:34 23:02:44 13° 313° (NW) 23:04:55 ?
KITSAT 1 23 Sep 23:01:49 23:09:12 37° 341° (NNW) 23:16:36 435.175 FM
UKube-1 23 Sep 23:07:17 23:10:52 25° 266° (W) 23:14:29 145.840 MHz, 145.915 MHz
HO-68 23 Sep 23:12:22 23:17:54 24° 271° (W) 23:23:29 435.675 MHz FM
ZACube-1 23 Sep 23:30:03 23:34:22 45° 262° (W) 23:38:48 437.345 MHz
UOSAT-12 23 Sep 23:31:45 23:35:06 20° 114° (ESE) 23:38:30 437.025 FM, 437.400 FM
SO-50 23 Sep 23:56:56 00:01:24 53° 322° (NW) 00:06:00 436.795 FM
Saudisat 1A 24 Sep 00:11:35 00:15:53 47° 37° (NE) 00:20:09 436.775 MHz
FUNcube-1 24 Sep 00:25:00 00:27:51 16° 273° (W) 00:30:45 145.950 - 145.970 MHz USB
KITSAT 1 24 Sep 00:59:44 01:06:55 33° 10° (N) 01:14:05 435.175 FM
UOSAT-12 24 Sep 01:10:02 01:14:43 84° 314° (NW) 01:19:30 437.025 FM, 437.400 FM
Oscar 16 24 Sep 01:38:19 01:40:00 11° 83° (E) 01:41:40 437.025 USB, Beacon 2401.1428
SO-50 24 Sep 01:39:17 01:42:56 22° 345° (NNW) 01:46:40 436.795 FM
Saudisat 1A 24 Sep 01:51:20 01:55:25 37° 238° (WSW) 01:59:28 436.775 MHz
ISS 24 Sep 02:00:23 02:02:06 13° 141° (SE) 02:03:48 145.800 FM
JAS-1B 24 Sep 02:29:50 02:33:42 18° 87° (E) 02:37:31 435.800 - 435.900 CW/SSB
ITAMSAT 1 24 Sep 02:30:10 02:32:58 14° 85° (E) 02:35:46 435.822 SSB
Uribyol 2 24 Sep 02:32:55 02:36:07 16° 87° (E) 02:39:18 436.500 FM
Oscar 19 24 Sep 02:35:49 02:40:27 32° 95° (E) 02:45:03 437.125 CW, 437.150 USB
Gurwin Techsat 1B 24 Sep 02:46:39 02:47:24 10° 81° (E) 02:48:10 435.225 FM
UOSAT-12 24 Sep 02:51:27 02:55:31 28° 337° (NNW) 02:59:37 437.025 FM, 437.400 FM
AO-Echo 24 Sep 02:52:11 02:56:08 24° 92° (E) 03:00:10 ?
KITSAT 1 24 Sep 02:56:03 03:04:03 58° 38° (NE) 03:11:59 435.175 FM
OPAL 24 Sep 02:59:59 03:02:17 13° 43° (NE) 03:04:35 ?
AO-27 24 Sep 03:05:19 03:09:45 27° 93° (E) 03:14:11 436.795 MHz FM
Oscar 16 24 Sep 03:15:12 03:20:23 67° 103° (ESE) 03:25:31 437.025 USB, Beacon 2401.1428
TMSAT-1 24 Sep 03:18:49 03:21:51 15° 85° (E) 03:24:53 436.925 FM
SO-50 24 Sep 03:21:28 03:25:01 21° 10° (N) 03:28:37 436.795 FM
ISS 24 Sep 03:35:00 03:38:12 44° 159° (SSE) 03:41:24 145.800 FM
RS-15 24 Sep 03:51:22 04:00:55 36° 109° (ESE) 04:10:23 29.354 - 29.394 USB, Beacon 29.352 USB
ITAMSAT 1 24 Sep 04:08:04 04:13:20 80° 105° (ESE) 04:18:34 435.822 SSB
Uribyol 2 24 Sep 04:11:05 04:16:22 88° 107° (ESE) 04:21:37 436.500 FM
Oscar 19 24 Sep 04:15:02 04:19:59 46° 294° (WNW) 04:24:53 437.125 CW, 437.150 USB
JAS-1B 24 Sep 04:19:30 04:25:19 81° 289° (WNW) 04:31:02 435.800 - 435.900 CW/SSB
Gurwin Techsat 1B 24 Sep 04:23:15 04:28:32 60° 101° (ESE) 04:33:47 435.225 FM
AO-Echo 24 Sep 04:30:30 04:35:15 57° 291° (WNW) 04:40:08 ?
UOSAT-12 24 Sep 04:33:37 04:37:05 20° 1° (N) 04:40:32 437.025 FM, 437.400 FM
OPAL 24 Sep 04:35:04 04:40:06 52° 64° (ENE) 04:45:11 ?
AO-27 24 Sep 04:44:29 04:49:36 55° 293° (WNW) 04:54:41 436.795 MHz FM
KITSAT 1 24 Sep 04:51:44 04:59:30 53° 242° (WSW) 05:07:13 435.175 FM
Oscar 16 24 Sep 04:55:12 04:59:21 25° 303° (WNW) 05:03:29 437.025 USB, Beacon 2401.1428
TMSAT-1 24 Sep 04:57:16 05:02:38 83° 105° (ESE) 05:07:57 436.925 FM
SO-50 24 Sep 05:02:14 05:06:44 40° 33° (NNE) 05:11:19 436.795 FM
ISS 24 Sep 05:11:25 05:14:46 76° 179° (S) 05:18:06 145.800 FM
AO-7 24 Sep 05:22:27 05:30:08 40° 97° (E) 05:37:46 29.400 - 29.500 MHz
STRAND 1 24 Sep 05:26:16 05:29:04 15° 49° (NE) 05:31:53 ?
Uosat F 24 Sep 05:44:33 05:49:23 44° 99° (E) 05:54:12 435.120 FM
ITAMSAT 1 24 Sep 05:48:24 05:52:17 22° 305° (NW) 05:56:10 435.822 SSB
Uribyol 2 24 Sep 05:51:31 05:55:14 20° 307° (NW) 05:58:56 436.500 FM
Oscar 19 24 Sep 05:56:54 05:58:09 11° 316° (NW) 05:59:24 437.125 CW, 437.150 USB
RS-15 24 Sep 06:01:12 06:12:13 85° 315° (NW) 06:23:16 29.354 - 29.394 USB, Beacon 29.352 USB
Gurwin Techsat 1B 24 Sep 06:03:44 06:08:13 28° 301° (WNW) 06:12:40 435.225 FM
AO-Echo 24 Sep 06:11:18 06:13:08 12° 311° (NW) 06:14:59 ?
JAS-1B 24 Sep 06:11:21 06:15:10 18° 313° (NW) 06:18:53 435.800 - 435.900 CW/SSB
UOSAT-12 24 Sep 06:14:26 06:18:37 29° 25° (NNE) 06:22:46 437.025 FM, 437.400 FM
OPAL 24 Sep 06:14:40 06:19:14 30° 263° (W) 06:23:50 ?
AO-27 24 Sep 06:25:49 06:28:05 13° 313° (NW) 06:30:22 436.795 MHz FM
TMSAT-1 24 Sep 06:38:04 06:41:59 21° 306° (NW) 06:45:54 436.925 FM
SO-50 24 Sep 06:42:50 06:47:29 52° 234° (SW) 06:52:12 436.795 FM
ISS 24 Sep 06:48:06 06:51:20 48° 199° (SSW) 06:54:33 145.800 FM
KITSAT 1 24 Sep 06:49:58 06:53:02 13° 264° (W) 06:56:06 435.175 FM
JAS-2 24 Sep 06:56:30 07:02:15 42° 97° (E) 07:08:41 435.800 - 435.900 CW/SSB, 435.910 FM
Hamsat 24 Sep 07:01:25 07:05:19 33° 95° (E) 07:09:09 145.90 MHz
STRAND 1 24 Sep 07:02:21 07:07:24 68° 70° (ENE) 07:12:30 ?
AO-7 24 Sep 07:15:14 07:23:23 64° 299° (WNW) 07:31:32 29.400 - 29.500 MHz
MaSat-1 24 Sep 07:17:20 07:20:01 15° 103° (ESE) 07:22:40 437.345 MHz
Uosat F 24 Sep 07:23:36 07:28:05 34° 299° (WNW) 07:32:34 435.120 FM
UOSAT-12 24 Sep 07:54:33 07:59:20 88° 227° (SW) 08:04:02 437.025 FM, 437.400 FM
RS-15 24 Sep 08:15:35 08:26:03 48° 345° (NNW) 08:36:42 29.354 - 29.394 USB, Beacon 29.352 USB
SO-67 24 Sep 08:25:01 08:28:16 36° 97° (E) 08:31:29 435.3500 MHz FM
ISS 24 Sep 08:25:30 08:27:29 15° 218° (SW) 08:29:28 145.800 FM
Hamsat 24 Sep 08:37:27 08:41:16 33° 295° (WNW) 08:45:02 145.90 MHz
JAS-2 24 Sep 08:41:46 08:47:26 46° 295° (WNW) 08:53:47 435.800 - 435.900 CW/SSB, 435.910 FM
STRAND 1 24 Sep 08:43:14 08:47:06 22° 270° (W) 08:51:00 ?
HO-68 24 Sep 08:46:07 08:48:27 12° 79° (E) 08:50:46 435.675 MHz FM
MaSat-1 24 Sep 08:51:05 08:56:04 78° 121° (ESE) 09:00:47 437.345 MHz
AO-7 24 Sep 09:08:44 09:14:48 23° 323° (NW) 09:20:51 29.400 - 29.500 MHz
UOSAT-12 24 Sep 09:35:44 09:38:52 18° 247° (WSW) 09:41:57 437.025 FM, 437.400 FM
SO-67 24 Sep 09:58:27 10:01:07 21° 296° (WNW) 10:03:47 435.3500 MHz FM
Oscar 11 24 Sep 10:27:29 10:30:42 20° 90° (E) 10:33:53 145.825 FM, Beacon 2401.500 USB
JAS-2 24 Sep 10:29:02 10:31:20 12° 316° (NW) 10:33:42 435.800 - 435.900 CW/SSB, 435.910 FM
MaSat-1 24 Sep 10:29:07 10:33:13 26° 321° (NW) 10:37:05 437.345 MHz
RS-15 24 Sep 10:30:30 10:41:06 50° 18° (NNE) 10:51:57 29.354 - 29.394 USB, Beacon 29.352 USB
HO-68 24 Sep 10:30:51 10:37:54 54° 101° (E) 10:44:54 435.675 MHz FM
FUNcube-1 24 Sep 10:31:54 10:33:20 11° 83° (E) 10:34:44 145.950 - 145.970 MHz USB
UKube-1 24 Sep 10:48:38 10:52:41 36° 97° (E) 10:56:43 145.840 MHz, 145.915 MHz
Sapphire 24 Sep 10:54:08 10:55:42 11° 101° (ESE) 10:57:16 437.095 MHz 1200 baud AX-25 AFSK
AO-7 24 Sep 11:02:04 11:04:40 12° 349° (N) 11:07:16 29.400 - 29.500 MHz
ZACube-1 24 Sep 11:13:30 11:17:25 26° 92° (E) 11:21:16 437.345 MHz
PCSat 24 Sep 11:18:01 11:21:45 19° 107° (ESE) 11:25:31 145.825 MHz
JAS-1B 24 Sep 11:36:33 11:37:56 11° 37° (NE) 11:39:17 435.800 - 435.900 CW/SSB
Oscar 11 24 Sep 12:02:58 12:07:16 58° 290° (WNW) 12:11:30 145.825 FM, Beacon 2401.500 USB
FUNcube-1 24 Sep 12:05:55 12:10:34 73° 103° (ESE) 12:15:08 145.950 - 145.970 MHz USB
MaSat-1 24 Sep 12:10:15 12:11:22 11° 343° (NNW) 12:12:28 437.345 MHz
HO-68 24 Sep 12:18:51 12:25:31 44° 302° (WNW) 12:32:12 435.675 MHz FM
Oscar 19 24 Sep 12:21:38 12:25:01 18° 52° (NE) 12:28:24 437.125 CW, 437.150 USB
Uribyol 2 24 Sep 12:22:03 12:22:44 10° 43° (NE) 12:23:24 436.500 FM
UKube-1 24 Sep 12:24:57 12:28:51 32° 297° (WNW) 12:32:44 145.840 MHz, 145.915 MHz
Sapphire 24 Sep 12:32:43 12:38:01 59° 122° (ESE) 12:43:21 437.095 MHz 1200 baud AX-25 AFSK
AO-Echo 24 Sep 12:36:27 12:37:47 11° 48° (NE) 12:39:08 ?
RS-15 24 Sep 12:43:40 12:54:46 90° 227° (SW) 13:06:15 29.354 - 29.394 USB, Beacon 29.352 USB
ZACube-1 24 Sep 12:49:34 12:54:03 48° 292° (WNW) 12:58:27 437.345 MHz
AO-7 24 Sep 12:50:34 12:54:00 13° 17° (NNE) 12:57:26 29.400 - 29.500 MHz
AO-27 24 Sep 12:52:38 12:55:42 16° 50° (NE) 12:58:47 436.795 MHz FM
PCSat 24 Sep 12:59:03 13:04:29 89° 128° (SE) 13:09:58 145.825 MHz
Oscar 16 24 Sep 12:59:46 13:04:19 32° 61° (ENE) 13:08:54 437.025 USB, Beacon 2401.1428
JAS-1B 24 Sep 13:20:11 13:27:01 38° 60° (ENE) 13:32:53 435.800 - 435.900 CW/SSB
Oscar 11 24 Sep 13:41:38 13:42:34 11° 310° (NW) 13:43:29 145.825 FM, Beacon 2401.500 USB
FUNcube-1 24 Sep 13:43:09 13:46:29 20° 303° (WNW) 13:49:46 145.950 - 145.970 MHz USB
ITAMSAT 1 24 Sep 13:53:20 13:58:06 39° 63° (ENE) 14:02:55 435.822 SSB
Uribyol 2 24 Sep 13:56:06 14:00:58 43° 64° (ENE) 14:05:53 436.500 FM
Oscar 19 24 Sep 13:58:26 14:03:39 82° 72° (ENE) 14:08:53 437.125 CW, 437.150 USB
HO-68 24 Sep 14:07:54 14:11:32 15° 326° (NW) 14:15:10 435.675 MHz FM
AO-Echo 24 Sep 14:11:02 14:15:37 55° 69° (ENE) 14:20:14 ?
Gurwin Techsat 1B 24 Sep 14:11:34 14:16:10 31° 60° (ENE) 14:20:47 435.225 FM
Sapphire 24 Sep 14:16:40 14:21:44 38° 324° (NW) 14:26:49 437.095 MHz 1200 baud AX-25 AFSK
AO-27 24 Sep 14:29:15 14:34:24 72° 71° (ENE) 14:39:36 436.795 MHz FM
AO-7 24 Sep 14:37:26 14:44:12 29° 43° (NE) 14:50:57 29.400 - 29.500 MHz
Oscar 16 24 Sep 14:38:28 14:43:31 50° 260° (W) 14:48:36 437.025 USB, Beacon 2401.1428
PCSat 24 Sep 14:43:52 14:48:35 29° 331° (NNW) 14:53:19 145.825 MHz
TMSAT-1 24 Sep 14:44:50 14:49:46 41° 64° (ENE) 14:54:43 436.925 FM
RS-15 24 Sep 14:56:35 15:05:56 34° 253° (WSW) 15:15:35 29.354 - 29.394 USB, Beacon 29.352 USB
JAS-1B 24 Sep 15:09:44 15:17:32 59° 258° (WSW) 15:24:04 435.800 - 435.900 CW/SSB
MaSat-1 24 Sep 15:25:35 15:28:30 18° 32° (NNE) 15:31:09 437.345 MHz
Uosat F 24 Sep 15:26:41 15:30:28 22° 56° (NE) 15:34:16 435.120 FM
ITAMSAT 1 24 Sep 15:32:49 15:37:38 39° 263° (W) 15:42:31 435.822 SSB
Uribyol 2 24 Sep 15:35:49 15:40:33 35° 264° (W) 15:45:20 436.500 FM
Oscar 19 24 Sep 15:40:05 15:43:39 18° 272° (W) 15:47:13 437.125 CW, 437.150 USB
Gurwin Techsat 1B 24 Sep 15:50:45 15:55:56 53° 260° (W) 16:01:09 435.225 FM
AO-Echo 24 Sep 15:51:01 15:54:45 23° 268° (W) 15:58:31 ?
Oscar 10/S400 24 Sep 15:53:56 16:04:38 16° 140° (SE) 16:17:40 145.825 - 145.975 CW/USB, Beacon 145.810 USB
Sapphire 24 Sep 16:02:48 16:06:39 19° 348° (NNW) 16:10:32 437.095 MHz 1200 baud AX-25 AFSK
Saudisat 1A 24 Sep 16:05:05 16:07:14 14° 111° (ESE) 16:09:24 436.775 MHz
AO-27 24 Sep 16:10:38 16:14:29 21° 270° (W) 16:18:21 436.795 MHz FM
TMSAT-1 24 Sep 16:24:50 16:29:45 38° 264° (W) 16:34:42 436.925 FM
AO-7 24 Sep 16:27:43 16:36:02 84° 67° (ENE) 16:44:22 29.400 - 29.500 MHz
PCSat 24 Sep 16:30:05 16:33:45 18° 356° (N) 16:37:26 145.825 MHz
MaSat-1 24 Sep 17:01:51 17:05:52 89° 59° (ENE) 17:09:15 437.345 MHz
Uosat F 24 Sep 17:03:48 17:08:47 74° 256° (WSW) 17:13:50 435.120 FM
JAS-1B 24 Sep 17:06:18 17:09:22 13° 277° (W) 17:12:17 435.800 - 435.900 CW/SSB
JAS-2 24 Sep 17:16:28 17:21:00 32° 60° (ENE) 17:25:43 435.800 - 435.900 CW/SSB, 435.910 FM
KITSAT 1 24 Sep 17:37:29 17:39:56 12° 95° (E) 17:42:24 435.175 FM
Saudisat 1A 24 Sep 17:41:41 17:46:05 76° 131° (SE) 17:50:31 436.775 MHz
Sapphire 24 Sep 17:48:05 17:52:04 20° 15° (NNE) 17:56:04 437.095 MHz 1200 baud AX-25 AFSK
Hamsat 24 Sep 18:00:08 18:04:21 51° 70° (ENE) 18:08:34 145.90 MHz
PCSat 24 Sep 18:14:43 18:19:05 24° 22° (NNE) 18:23:26 145.825 MHz
OPAL 24 Sep 18:17:45 18:22:43 45° 101° (E) 18:27:35 ?
AO-7 24 Sep 18:22:52 18:29:47 29° 269° (W) 18:36:44 29.400 - 29.500 MHz
MaSat-1 24 Sep 18:40:59 18:41:36 10° 260° (W) 18:42:12 437.345 MHz
Uosat F 24 Sep 18:46:25 18:48:29 12° 275° (W) 18:50:35 435.120 FM
JAS-2 24 Sep 19:01:03 19:06:01 47° 262° (W) 19:11:11 435.800 - 435.900 CW/SSB, 435.910 FM
SO-67 24 Sep 19:03:33 19:06:40 32° 68° (ENE) 19:09:47 435.3500 MHz FM
STRAND 1 24 Sep 19:08:13 19:11:05 15° 86° (E) 19:13:58 ?
HO-68 24 Sep 19:20:31 19:25:44 23° 44° (NE) 19:30:58 435.675 MHz FM
Saudisat 1A 24 Sep 19:22:11 19:26:06 30° 333° (NNW) 19:30:01 436.775 MHz
KITSAT 1 24 Sep 19:25:43 19:33:24 50° 117° (ESE) 19:41:07 435.175 FM
Sapphire 24 Sep 19:31:40 19:36:53 44° 39° (NE) 19:42:04 437.095 MHz 1200 baud AX-25 AFSK
Hamsat 24 Sep 19:37:11 19:40:36 22° 269° (W) 19:44:01 145.90 MHz
OPAL 24 Sep 19:56:50 20:01:32 36° 301° (WNW) 20:06:09 ?
PCSat 24 Sep 19:58:07 20:03:33 63° 46° (NE) 20:08:56 145.825 MHz
UKube-1 24 Sep 20:16:46 20:18:31 12° 51° (NE) 20:20:16 145.840 MHz, 145.915 MHz
SO-67 24 Sep 20:36:57 20:39:46 23° 267° (W) 20:42:35 435.3500 MHz FM
